Location: Hernandez
(10.3704°N, 67.2181°W)
Time: 04:42:32
(UTC+00:00)

ADEOS Rocket - Pass Details

Date: 13 April 2024
Orbit: 859 x 1305 km, 98.7° (Epoch: 25 May)

Event Time Altitude Azimuth Distance (km) Brightness Sun altitude
Rises 23:08:36 0° 155° (SSE) 3,705 5.7 -7.8°
Reaches altitude 10° 23:11:15 10° 149° (SSE) 2,696 4.9 -8.5°
Maximum altitude 23:16:55 46° 77° (ENE) 1,193 3.1 -9.8°
Drops below altitude 10° 23:22:12 10° 5° (N) 2,516 5.3 -11.1°
Sets 23:24:35 0° 359° (N) 3,434 6.0 -11.7°
